This is the latest recevied weather packets stored in our database for station/object EA3FHP. If no packets are shown the sender has not sent any weather packets the latest 10 day(s).
| Time | Temp. | Humidity | Pressure | Rain* | Wind** | Luminosity | Snow |
|---|---|---|---|---|---|---|---|
| 1787736003 | 21.67° C | 75% | 1017.1 hPa | 0 mm | - | - | - |
| 1787735403 | 21.11° C | 76% | 1017.3 hPa | 0 mm | - | - | - |
| 1787734804 | 21.11° C | 77% | 1016.5 hPa | 0 mm | - | - | - |
| 1787734203 | 21.67° C | 76% | 1016.3 hPa | 0 mm | - | - | - |
| 1787733603 | 21.11° C | 76% | 1016.2 hPa | 0 mm | - | - | - |
| 1787733003 | 20.56° C | 78% | 1016.5 hPa | 0 mm | - | - | - |
| 1787732403 | 20° C | 81% | 1016.5 hPa | 0 mm | - | - | - |
| 1787731803 | 20° C | 80% | 1016.9 hPa | 0 mm | - | - | - |
| 1787731203 | 20° C | 79% | 1017.4 hPa | 0 mm | - | - | - |
| 1787730603 | 19.44° C | 80% | 1017.1 hPa | 0 mm | - | - | - |
| 1787730003 | 18.89° C | 81% | 1017.6 hPa | 0 mm | - | - | - |
| 1787729403 | 19.44° C | 81% | 1017.7 hPa | 0 mm | - | - | - |
| 1787728803 | 19.44° C | 82% | 1017.7 hPa | 0 mm | - | - | - |
| 1787728203 | 19.44° C | 83% | 1017.1 hPa | 0 mm | - | - | - |
| 1787727603 | 19.44° C | 83% | 1017.9 hPa | 0 mm | - | - | - |
| 1787727003 | 18.89° C | 84% | 1018.7 hPa | 0 mm | - | - | - |
| 1787726403 | 18.33° C | 85% | 1018.3 hPa | 0 mm | - | - | - |
| 1787725803 | 18.33° C | 88% | 1019 hPa | 0 mm | - | - | - |
| 1787725203 | 17.78° C | 90% | 1018 hPa | 0 mm | - | - | - |
| 1787724603 | 17.78° C | 90% | 1017.9 hPa | 0 mm | - | - | - |
| 1787724003 | 17.22° C | 90% | 1017.1 hPa | 0 mm | - | - | - |
| 1787723403 | 17.22° C | 90% | 1017.8 hPa | 0 mm | - | - | - |
| 1787722804 | 17.22° C | 90% | 1017.4 hPa | 0 mm | - | - | - |
| 1787722203 | 16.67° C | 90% | 1017.7 hPa | 0 mm | - | - | - |
| 1787721604 | 16.67° C | 90% | 1017.6 hPa | 0 mm | - | - | - |
* Rain latest hour (hover to see other rain measurements)
** Current wind speed in m/s (hover to see current wind gust speed)